Location: Newark
(45.8667°N, 9.7333°E)
Time: 08:41:28
(UTC+00:00)

Explorer 11/Cluster Stage 4 - All Passes

Search period start: 21 January 2020 00:00
Search period end: 31 January 2020 00:00
Orbit: 467 x 1259 km, 28.8° (Epoch: 21 January)

Date Brightness Start Highest point End Pass type
(mag) Time Alt. Az. Time Alt. Az. Time Alt. Az.
21 Jan - 14:27:35 10° S 14:29:56 12° SSE 14:32:11 10° SE daylight
21 Jan - 16:13:49 10° SW 16:17:45 16° S 16:21:17 10° SE daylight
21 Jan - 18:02:57 10° SW 18:05:19 12° SSW 18:07:32 10° S visible
22 Jan - 14:15:33 10° SSW 14:18:59 14° SSE 14:22:13 10° SE daylight
22 Jan - 16:02:28 10° SW 16:06:50 17° S 16:10:46 10° SE daylight
22 Jan - 17:51:52 10° SW 17:54:26 13° SSW 17:56:50 10° S visible
23 Jan - 14:03:50 10° SSW 14:08:01 15° SSE 14:11:56 10° SE daylight
23 Jan - 15:51:11 10° SW 15:55:55 18° S 16:00:10 10° SE daylight
23 Jan - 17:40:50 10° SW 17:43:31 13° SSW 17:46:02 10° S visible
24 Jan - 13:52:17 10° SSW 13:57:01 17° SSE 14:01:28 10° SE daylight
24 Jan - 15:39:56 10° SW 15:44:58 19° S 15:49:30 10° SE daylight
24 Jan - 17:29:51 10° SW 17:32:36 13° SSW 17:35:10 10° S visible
25 Jan - 11:57:46 10° SSE 11:58:07 10° SSE 11:58:28 10° SSE daylight
25 Jan - 13:40:51 10° SSW 13:46:01 18° S 13:50:53 10° SE daylight
25 Jan - 15:28:44 10° SW 15:34:00 20° S 15:38:46 10° SE daylight
25 Jan - 17:18:56 10° SW 17:21:39 12° SSW 17:24:11 10° S visible
26 Jan - 11:44:33 10° S 11:47:04 12° SSE 11:49:35 10° SE daylight
26 Jan - 13:29:31 10° SSW 13:34:59 20° S 13:40:12 10° SE daylight
26 Jan - 15:17:36 10° SW 15:23:00 20° S 15:27:58 10° SE daylight
26 Jan - 17:08:06 10° SW 17:10:40 12° SSW 17:13:05 10° S visible
27 Jan - 11:32:37 10° S 11:36:00 13° SSE 11:39:24 10° SE daylight
27 Jan - 13:18:15 10° SW 13:23:57 21° S 13:29:27 10° SE daylight
27 Jan - 15:06:30 10° SW 15:12:00 20° S 15:17:06 10° SE daylight
27 Jan - 16:57:25 10° SW 16:59:40 11° SSW 17:01:49 10° S visible
28 Jan - 11:20:59 10° S 11:24:56 14° SSE 11:28:56 10° SE daylight
28 Jan - 13:07:03 10° SW 13:12:54 22° S 13:18:38 10° SE daylight
28 Jan - 14:55:27 10° SW 15:00:58 20° S 15:06:09 10° SSE daylight
28 Jan - 16:46:57 10° SW 16:48:38 11° SSW 16:50:18 10° SSW visible
29 Jan - 11:09:33 10° SSW 11:13:53 16° SSE 11:18:18 10° SE daylight
29 Jan - 12:55:56 10° SW 13:01:52 22° S 13:07:44 10° SE daylight
29 Jan - 14:44:27 10° SW 14:49:56 20° SSW 14:55:09 10° SSE daylight
30 Jan - 10:58:15 10° SSW 11:02:49 17° SSE 11:07:32 10° SE daylight
30 Jan - 12:44:52 10° SW 12:50:49 23° S 12:56:46 10° SE daylight
30 Jan - 14:33:30 10° SW 14:38:53 19° SSW 14:44:04 10° SSE daylight
